Weather History for Silver City, NM

Change the Weather History Date:

Monday, October 21, 2013

  Actual Average (KDMN) Record (KDMN)
Temperature  
Mean Temperature 53 °F 60 °F  
Max Temperature 69 °F 76 °F 87 °F (1952)
Min Temperature 37 °F 43 °F 27 °F (1949)
Degree Days  
Heating Degree Days 12    
Growing Degree Days 3 (Base 50)    
Moisture  
Dew Point 16 °F    
Average Humidity 24    
Maximum Humidity 45    
Minimum Humidity 10    
Precipitation  
Precipitation 0.00 in 0.03 in 0.52 in (1984)
Month to date precipitation 0.82  
Year to date precipitation 9.71  
Sea Level Pressure  
Sea Level Pressure 30.13 in    
Wind  
Wind Speed 10 mph (ENE)    
Max Wind Speed 16 mph    
Max Gust Speed 22 mph    
Visibility 10 miles    
Events Thunderstorm    
T = Trace of Precipitation, MM = Missing Value Source: NWS Daily Summary

Daily Weather History Graph

Daily Weather History Graph

Search for Another Location

Airport:

Trip Planner

Search our weather history database for the weather conditions in past years. The results will help you decide how hot, cold, wet, or windy it might be!

Date:

Astronomy

Oct. 21, 2013 Rise Set
Actual Time 7:21 AM MDT 6:32 PM MDT
Civil Twilight 6:56 AM MDT 6:57 PM MDT
Nautical Twilight 6:27 AM MDT 7:26 PM MDT
Astronomical Twilight 5:59 AM MDT 7:54 PM MDT
Moon 8:35 PM MDT (10/21) 9:51 AM MDT (10/21)
Length of Visible Light 12h 01m
Length of Day
11h 11m
Waning Gibbous, 92% of the Moon is Illuminated
Oct 21
Waning Gibbous
Oct 26
Last Quarter
Nov 3
New
Nov 9
First Quarter
Nov 17
Full

Hourly Weather History & Observations

Time (MDT) Temp. Windchill Dew Point Humidity Pressure Visibility Wind Dir Wind Speed Gust Speed Precip Events Conditions
12:15 AM 48.2 °F - 12.2 °F 24% 30.05 in 10.0 mi North 11.5 mph - N/A   Clear
12:35 AM 46.4 °F 41.9 °F 12.2 °F 25% 30.06 in 10.0 mi North 9.2 mph - N/A   Clear
12:55 AM 44.6 °F 39.2 °F 12.2 °F 27% 30.06 in 10.0 mi North 10.4 mph - N/A   Clear
1:15 AM 48.2 °F - 12.2 °F 24% 30.06 in 10.0 mi NNW 13.8 mph - N/A   Clear
1:35 AM 50.0 °F - 14.0 °F 24% 30.07 in 10.0 mi North 13.8 mph - N/A Thunderstorm Clear
1:55 AM 48.2 °F - 14.0 °F 25% 30.07 in 10.0 mi North 11.5 mph - N/A   Clear
2:15 AM 44.6 °F 38.8 °F 14.0 °F 29% 30.08 in 10.0 mi NNE 11.5 mph - N/A Thunderstorm Clear
2:35 AM 46.4 °F 41.9 °F 14.0 °F 27% 30.08 in 10.0 mi North 9.2 mph - N/A   Clear
2:55 AM 48.2 °F - 14.0 °F 25% 30.08 in 10.0 mi North 13.8 mph - N/A   Clear
3:15 AM 48.2 °F - 14.0 °F 25% 30.08 in 10.0 mi North 12.7 mph - N/A   Clear
3:35 AM 44.6 °F 37.8 °F 14.0 °F 29% 30.08 in 10.0 mi North 15.0 mph - N/A   Clear
3:55 AM 44.6 °F 38.8 °F 14.0 °F 29% 30.08 in 10.0 mi North 11.5 mph - N/A   Clear
4:15 AM 42.8 °F 36.6 °F 14.0 °F 31% 30.07 in 10.0 mi North 11.5 mph - N/A   Clear
4:35 AM 44.6 °F 38.1 °F 14.0 °F 29% 30.08 in 10.0 mi North 13.8 mph - N/A   Clear
4:55 AM 44.6 °F 38.1 °F 14.0 °F 29% 30.08 in 10.0 mi North 13.8 mph - N/A   Clear
5:15 AM 44.6 °F 39.2 °F 14.0 °F 29% 30.08 in 10.0 mi North 10.4 mph - N/A   Clear
5:35 AM 44.6 °F 39.2 °F 14.0 °F 29% 30.08 in 10.0 mi North 10.4 mph - N/A   Clear
5:55 AM 42.8 °F 38.0 °F 14.0 °F 31% 30.09 in 10.0 mi NNW 8.1 mph - N/A   Clear
6:15 AM 39.2 °F 32.5 °F 14.0 °F 36% 30.09 in 10.0 mi NNW 10.4 mph - N/A   Clear
6:35 AM 41.0 °F 35.2 °F 14.0 °F 33% 30.09 in 10.0 mi NNW 9.2 mph - N/A   Clear
6:55 AM 41.0 °F 34.3 °F 14.0 °F 33% 30.10 in 10.0 mi North 11.5 mph - N/A   Clear
7:15 AM 41.0 °F 34.7 °F 14.0 °F 33% 30.10 in 10.0 mi NNW 10.4 mph - N/A   Clear
7:35 AM 39.2 °F 32.5 °F 14.0 °F 36% 30.11 in 10.0 mi NW 10.4 mph - N/A   Clear
7:55 AM 41.0 °F 38.0 °F 14.0 °F 33% 30.12 in 10.0 mi NNE 4.6 mph - N/A   Clear
8:15 AM 44.6 °F 43.1 °F 15.8 °F 31% 30.12 in 10.0 mi NNW 3.5 mph - N/A   Clear
8:35 AM 50.0 °F - 15.8 °F 26% 30.13 in 10.0 mi NW 3.5 mph - N/A   Clear
8:55 AM 53.6 °F - 15.8 °F 22% 30.14 in 10.0 mi Calm Calm - N/A   Clear
9:15 AM 55.4 °F - 15.8 °F 21% 30.15 in 10.0 mi South 3.5 mph - N/A   Clear
9:35 AM 57.2 °F - 15.8 °F 20% 30.16 in 10.0 mi Calm Calm - N/A   Clear
9:55 AM 59.0 °F - 14.0 °F 17% 30.16 in 10.0 mi SE 4.6 mph - N/A   Clear
10:15 AM 59.0 °F - 15.8 °F 19% 30.16 in 10.0 mi SE 6.9 mph - N/A   Clear
10:35 AM 59.0 °F - 15.8 °F 19% 30.17 in 10.0 mi SE 8.1 mph - N/A   Clear
10:55 AM 59.0 °F - 14.0 °F 17% 30.17 in 10.0 mi SE 10.4 mph - N/A   Clear
11:15 AM 60.8 °F - 15.8 °F 17% 30.17 in 10.0 mi SSE 9.2 mph - N/A   Clear
11:35 AM 62.6 °F - 15.8 °F 16% 30.17 in 10.0 mi SSE 9.2 mph - N/A   Clear
11:55 AM 64.4 °F - 15.8 °F 15% 30.17 in 10.0 mi South 10.4 mph - N/A   Clear
12:15 PM 64.4 °F - 15.8 °F 15% 30.17 in 10.0 mi South 11.5 mph 17.3 mph N/A   Clear
12:35 PM 64.4 °F - 15.8 °F 15% 30.17 in 10.0 mi South 11.5 mph - N/A   Clear
12:55 PM 64.4 °F - 15.8 °F 15% 30.16 in 10.0 mi South 9.2 mph - N/A   Clear
1:15 PM 66.2 °F - 17.6 °F 15% 30.15 in 10.0 mi South 5.8 mph - N/A   Clear
1:35 PM 66.2 °F - 17.6 °F 15% 30.14 in 10.0 mi SSE 6.9 mph - N/A   Clear
1:55 PM 66.2 °F - 19.4 °F 17% 30.13 in 10.0 mi South 11.5 mph 17.3 mph N/A   Clear
2:15 PM 66.2 °F - 19.4 °F 17% 30.13 in 10.0 mi South 10.4 mph - N/A   Clear
2:35 PM 68.0 °F - 17.6 °F 15% 30.12 in 10.0 mi South 15.0 mph 18.4 mph N/A Thunderstorm Clear
2:55 PM 68.0 °F - 17.6 °F 15% 30.12 in 10.0 mi SSE 10.4 mph - N/A   Clear
3:15 PM 68.0 °F - 17.6 °F 15% 30.12 in 10.0 mi South 10.4 mph 16.1 mph N/A   Clear
3:35 PM 69.8 °F - 17.6 °F 14% 30.12 in 10.0 mi SSE 12.7 mph 16.1 mph N/A   Clear
3:55 PM 69.8 °F - 15.8 °F 13% 30.12 in 10.0 mi South 10.4 mph 20.7 mph N/A   Clear
4:15 PM 69.8 °F - 15.8 °F 13% 30.11 in 10.0 mi SSE 12.7 mph 16.1 mph N/A   Clear
4:35 PM 69.8 °F - 15.8 °F 13% 30.11 in 10.0 mi South 12.7 mph 18.4 mph N/A   Clear
4:55 PM 69.8 °F - 14.0 °F 12% 30.11 in 10.0 mi South 16.1 mph 21.9 mph N/A   Clear
5:15 PM 69.8 °F - 10.4 °F 10% 30.11 in 10.0 mi WSW 9.2 mph - N/A   Clear
5:35 PM 69.8 °F - 10.4 °F 10% 30.12 in 10.0 mi East 3.5 mph - N/A   Clear
5:55 PM 66.2 °F - 15.8 °F 14% 30.12 in 10.0 mi SSE 11.5 mph 19.6 mph N/A   Clear
6:15 PM 64.4 °F - 15.8 °F 15% 30.13 in 10.0 mi ESE 13.8 mph - N/A   Clear
6:35 PM 62.6 °F - 15.8 °F 16% 30.14 in 10.0 mi ESE 10.4 mph - N/A   Clear
6:55 PM 59.0 °F - 17.6 °F 20% 30.15 in 10.0 mi ESE 10.4 mph - N/A   Clear
7:15 PM 57.2 °F - 17.6 °F 21% 30.15 in 10.0 mi ESE 11.5 mph - N/A   Clear
7:35 PM 57.2 °F - 17.6 °F 21% 30.16 in 10.0 mi East 10.4 mph - N/A   Clear
7:55 PM 55.4 °F - 23.0 °F 29% 30.17 in 10.0 mi ENE 8.1 mph - N/A   Clear
8:15 PM 55.4 °F - 23.0 °F 29% 30.18 in 10.0 mi East 6.9 mph - N/A Thunderstorm Clear
8:35 PM 55.4 °F - 23.0 °F 29% 30.18 in 10.0 mi East 4.6 mph - N/A   Clear
8:55 PM 53.6 °F - 24.8 °F 33% 30.19 in 10.0 mi East 5.8 mph - N/A   Clear
9:15 PM 53.6 °F - 24.8 °F 33% 30.20 in 10.0 mi ESE 4.6 mph - N/A   Clear
9:35 PM 44.6 °F 43.1 °F 19.4 °F 37% 30.21 in 10.0 mi WNW 3.5 mph - N/A Thunderstorm Clear
9:55 PM 42.8 °F - 17.6 °F 36% 30.22 in 10.0 mi Calm Calm - N/A   Clear
10:15 PM 42.8 °F - 17.6 °F 36% 30.23 in 10.0 mi Calm Calm - N/A   Clear
10:35 PM 41.0 °F 39.0 °F 17.6 °F 39% 30.23 in 10.0 mi NNW 3.5 mph - N/A   Clear
10:55 PM 39.2 °F 35.9 °F 17.6 °F 42% 30.24 in 10.0 mi NW 4.6 mph - N/A   Clear
11:15 PM 39.2 °F 35.0 °F 17.6 °F 42% 30.24 in 10.0 mi NNW 5.8 mph - N/A   Clear
11:35 PM 37.4 °F 32.1 °F 17.6 °F 45% 30.25 in 10.0 mi NNW 6.9 mph - N/A   Clear
11:55 PM 39.2 °F 35.0 °F 19.4 °F 45% 30.25 in 10.0 mi NNW 5.8 mph - N/A   Clear